Location: St Paul
(33.9360°N, 83.4200°W)
Time: 13:06:41
(UTC-04:00)

GPS 2-05 Rocket1 - Pass Details

Date: 06 October 2017
Orbit: 366 x 434 km, 35.6° (Epoch: 16 October)

Event Time Altitude Azimuth Distance (km) Brightness Sun altitude
Rises 20:48:45 0° 270° (W) 2,390 8.1 -21.1°
Reaches altitude 10° 20:50:53 10° 273° (W) 1,528 6.7 -21.5°
Enters shadow 20:53:58 59° 316° (NW) 504 3.2 -22.2°
